Weather History for San Antonio, TX

Change the Weather History Date:

Monday, April 22, 2013

  Actual Average Record
Temperature  
Mean Temperature 73 °F 71 °F  
Max Temperature 84 °F 82 °F 96 °F (1963)
Min Temperature 62 °F 60 °F 43 °F (1993)
Degree Days  
Heating Degree Days 0 1  
Month to date heating degree days 46 37  
Since 1 July heating degree days 1180 1492  
Cooling Degree Days 8 7  
Month to date cooling degree days 102 109  
Year to date cooling degree days 219 200  
Growing Degree Days 23 (Base 50)    
Moisture  
Dew Point 59 °F    
Average Humidity 67    
Maximum Humidity 90    
Minimum Humidity 43    
Precipitation  
Precipitation 0.00 in 0.08 in 2.07 in (1978)
Month to date precipitation 1.81 1.41  
Year to date precipitation 5.69 7.27  
Snow  
Snow 0.00 in - - ()
Month to date snowfall T  
Since 1 July snowfall T  
Snow Depth 0.00 in    
Sea Level Pressure  
Sea Level Pressure 29.99 in    
Wind  
Wind Speed 11 mph (SSE)    
Max Wind Speed 24 mph    
Max Gust Speed 29 mph    
Visibility 10 miles    
Events      
T = Trace of Precipitation, MM = Missing Value Source: NWS Daily Summary

Daily Weather History Graph

Daily Weather History Graph

Search for Another Location

Airport:

Trip Planner

Search our weather history database for the weather conditions in past years. The results will help you decide how hot, cold, wet, or windy it might be!

Date:

Astronomy

Apr. 22, 2013 Rise Set
Actual Time 6:59 AM CDT 8:05 PM CDT
Civil Twilight 6:35 AM CDT 8:29 PM CDT
Nautical Twilight 6:05 AM CDT 8:59 PM CDT
Astronomical Twilight 5:35 AM CDT 9:29 PM CDT
Moon 5:08 PM CDT (4/22) 4:40 AM CDT (4/22)
Length of Visible Light 13h 54m
Length of Day
13h 05m
Waxing Gibbous, 88% of the Moon is Illuminated
Apr 22
Waxing Gibbous
Apr 25
Full
May 2
Last Quarter
May 9
New
May 17
First Quarter

Hourly Weather History & Observations

Time (CDT) Temp. Heat Index Dew Point Humidity Pressure Visibility Wind Dir Wind Speed Gust Speed Precip Events Conditions
12:51 AM 64.0 °F - 57.9 °F 80% 30.07 in 10.0 mi ESE 17.3 mph - N/A   Overcast
1:51 AM 63.0 °F - 57.9 °F 84% 30.07 in 10.0 mi SE 17.3 mph - N/A   Mostly Cloudy
2:13 AM 62.6 °F - 57.2 °F 82% 30.10 in 10.0 mi SE 15.0 mph - N/A   Overcast
2:51 AM 63.0 °F - 57.9 °F 84% 30.05 in 10.0 mi SE 12.7 mph - N/A   Overcast
3:51 AM 62.1 °F - 57.9 °F 86% 30.04 in 10.0 mi SE 11.5 mph - N/A   Overcast
4:51 AM 62.1 °F - 59.0 °F 90% 30.03 in 8.0 mi SE 6.9 mph - N/A   Overcast
5:51 AM 62.1 °F - 59.0 °F 90% 30.03 in 10.0 mi SSE 9.2 mph - N/A   Overcast
5:58 AM 62.6 °F - 59.0 °F 88% 30.07 in 9.0 mi SE 6.9 mph - N/A   Overcast
6:05 AM 62.6 °F - 59.0 °F 88% 30.08 in 10.0 mi SSE 8.1 mph - N/A   Overcast
6:47 AM 62.6 °F - 59.0 °F 88% 30.08 in 10.0 mi SE 5.8 mph - N/A   Overcast
6:51 AM 62.1 °F - 59.0 °F 90% 30.04 in 10.0 mi SSE 8.1 mph - N/A   Overcast
7:51 AM 63.0 °F - 59.0 °F 87% 30.06 in 10.0 mi SSE 6.9 mph - N/A   Overcast
8:51 AM 64.9 °F - 59.0 °F 81% 30.06 in 10.0 mi SSE 9.2 mph - N/A   Overcast
9:51 AM 66.9 °F - 60.1 °F 79% 30.07 in 10.0 mi SSE 9.2 mph - N/A   Overcast
10:51 AM 70.0 °F - 60.1 °F 71% 30.06 in 10.0 mi SSW 9.2 mph - N/A   Mostly Cloudy
11:22 AM 71.6 °F - 60.8 °F 69% 30.10 in 10.0 mi South 9.2 mph - N/A   Scattered Clouds
11:37 AM 73.4 °F - 60.8 °F 65% 30.09 in 10.0 mi SSW 9.2 mph - N/A   Mostly Cloudy
11:51 AM 72.0 °F - 60.1 °F 66% 30.04 in 10.0 mi SSW 11.5 mph - N/A   Mostly Cloudy
12:51 PM 73.9 °F - 60.1 °F 62% 30.02 in 10.0 mi South 9.2 mph - N/A   Overcast
1:51 PM 78.1 °F - 61.0 °F 56% 29.98 in 10.0 mi South 8.1 mph 18.4 mph N/A   Overcast
2:51 PM 80.1 °F 81.1 °F 61.0 °F 52% 29.95 in 10.0 mi South 11.5 mph 17.3 mph N/A   Scattered Clouds
3:51 PM 81.0 °F 81.3 °F 59.0 °F 47% 29.90 in 10.0 mi South 13.8 mph 20.7 mph N/A   Partly Cloudy
4:51 PM 82.9 °F 83.2 °F 60.1 °F 46% 29.86 in 10.0 mi South 11.5 mph - N/A   Partly Cloudy
5:51 PM 84.0 °F 83.8 °F 59.0 °F 43% 29.84 in 10.0 mi South 9.2 mph - N/A   Clear
6:51 PM 82.9 °F 82.6 °F 57.9 °F 42% 29.83 in 10.0 mi South 10.4 mph - N/A   Clear
7:51 PM 81.0 °F 81.0 °F 57.0 °F 44% 29.83 in 10.0 mi South 8.1 mph - N/A   Clear
8:51 PM 78.1 °F - 57.0 °F 48% 29.84 in 10.0 mi SE 9.2 mph - N/A   Clear
9:51 PM 75.9 °F - 60.1 °F 58% 29.86 in 10.0 mi SSE 17.3 mph - N/A   Clear
10:51 PM 72.0 °F - 62.1 °F 71% 29.88 in 10.0 mi SSE 17.3 mph 23.0 mph N/A   Clear
11:51 PM 69.1 °F - 62.1 °F 78% 29.89 in 10.0 mi SSE 16.1 mph - N/A   Clear